FLOCK 3P-77

Last updated on Wed Feb 14 2018 16:20:32 GMT+0000 (Coordinated Universal Time)

1 42025U 17008CF 18044.83671238 .00001534 00000-0 66418-4 0 9996 2 42025 97.4683 110.5043 0009852 75.0276 285.2051 15.23905883 55161
UTC large
Height (km)
Speed (km/s)
/
Latitude / Longitude
Inclination (degrees)
Orbital Period (minutes)
Azimuth
Elevation
Range (km)
Doppler Factor

Next 0 passes for location: London (51.5072 / 0.1276)

Sorry there are no passes over London.